Location: Unspecified
(0.0000°N, 0.0000°E)
Time: 20:38:05
(UTC+00:00)

Amsat-Oscar-6 - Pass Details

Date: 24 June 2019
Orbit: 1448 x 1454 km, 101.8° (Epoch: 22 July)

Event Time Altitude Azimuth Distance (km) Brightness Sun altitude
Rises 03:18:01 0° 15° (NNE) 4,542 ? -37.1°
Reaches altitude 10° 03:20:47 10° 14° (NNE) 3,565 ? -36.5°
Maximum altitude 03:29:07 86° 286° (WNW) 1,460 ? -34.7°
Enters shadow 03:29:16 85° 255° (WSW) 1,461 ? -34.6°
